Year,Month,Day,Hour,Minute,Value (Times are PST for temperature in C)
2005,04,28,09,55,13.30
2005,04,28,09,56,13.30
2005,04,28,09,57,13.30
2005,04,28,09,58,13.30
2005,04,28,09,59,13.30
2005,04,28,10,00,13.30
2005,04,28,10,01,13.30
2005,04,28,10,02,13.30
2005,04,28,10,03,13.40
2005,04,28,10,04,13.40
2005,04,28,10,05,13.40
2005,04,28,10,06,13.40
2005,04,28,10,07,13.40
2005,04,28,10,08,13.40
2005,04,28,10,09,13.50
2005,04,28,10,10,13.50
2005,04,28,10,11,13.50
2005,04,28,10,12,13.50
2005,04,28,10,13,13.50
2005,04,28,10,14,13.50
2005,04,28,10,15,13.50
2005,04,28,10,16,13.50
2005,04,28,10,17,13.50
2005,04,28,10,18,13.40
2005,04,28,10,19,13.40
2005,04,28,10,20,13.30
2005,04,28,10,21,13.30
2005,04,28,10,22,13.20
2005,04,28,10,23,13.20
2005,04,28,10,24,13.10
2005,04,28,10,25,13.00
2005,04,28,10,26,13.00
2005,04,28,10,27,13.00
2005,04,28,10,28,13.00
2005,04,28,10,29,13.00
2005,04,28,10,30,13.00
2005,04,28,10,31,13.10
2005,04,28,10,32,13.20
2005,04,28,10,33,13.20
2005,04,28,10,34,13.20
2005,04,28,10,35,13.20
2005,04,28,10,36,13.30
2005,04,28,10,37,13.30
2005,04,28,10,38,13.30
2005,04,28,10,39,13.40
2005,04,28,10,40,13.50
2005,04,28,10,41,13.60
2005,04,28,10,42,13.50
2005,04,28,10,43,13.40
2005,04,28,10,44,13.30
2005,04,28,10,45,13.10
2005,04,28,10,46,13.00
2005,04,28,10,47,12.90
2005,04,28,10,48,12.80
2005,04,28,10,49,12.80
2005,04,28,10,50,12.90
2005,04,28,10,51,13.00
2005,04,28,10,52,12.90
2005,04,28,10,53,12.90
2005,04,28,10,54,12.80
2005,04,28,10,55,12.90
2005,04,28,10,56,12.90
2005,04,28,10,57,13.00
2005,04,28,10,58,13.10
2005,04,28,10,59,13.10
2005,04,28,11,00,13.10
2005,04,28,11,01,13.10
2005,04,28,11,02,13.10
2005,04,28,11,03,13.20
2005,04,28,11,04,13.20
2005,04,28,11,05,13.30
2005,04,28,11,06,13.30
2005,04,28,11,07,13.40
2005,04,28,11,08,13.40
2005,04,28,11,09,13.40
2005,04,28,11,10,13.50
2005,04,28,11,11,13.50
2005,04,28,11,12,13.50
2005,04,28,11,13,13.50
2005,04,28,11,14,13.40
2005,04,28,11,15,13.40
2005,04,28,11,16,13.30
2005,04,28,11,17,13.30
2005,04,28,11,18,13.30
2005,04,28,11,19,13.40
2005,04,28,11,20,13.40
2005,04,28,11,21,13.40
2005,04,28,11,22,13.40
2005,04,28,11,23,13.40
2005,04,28,11,24,13.40
2005,04,28,11,25,13.40
2005,04,28,11,26,13.30
2005,04,28,11,27,13.30
2005,04,28,11,28,13.30
2005,04,28,11,29,13.40
2005,04,28,11,30,13.50
2005,04,28,11,31,13.60
2005,04,28,11,32,13.70
2005,04,28,11,33,13.80
2005,04,28,11,34,13.90
2005,04,28,11,35,14.00
2005,04,28,11,36,14.10
2005,04,28,11,37,14.20
2005,04,28,11,38,14.20
2005,04,28,11,39,14.30
2005,04,28,11,40,14.30
2005,04,28,11,41,14.40
2005,04,28,11,42,14.40
2005,04,28,11,43,14.40
2005,04,28,11,44,14.50
2005,04,28,11,45,14.50
2005,04,28,11,46,14.50
2005,04,28,11,47,14.60
2005,04,28,11,48,14.60
2005,04,28,11,49,14.70
2005,04,28,11,50,14.80
2005,04,28,11,51,14.80
2005,04,28,11,52,14.90
2005,04,28,11,53,15.00
2005,04,28,11,54,15.20
2005,04,28,11,55,15.20
2005,04,28,11,56,15.30
2005,04,28,11,57,15.30
2005,04,28,11,58,15.30
2005,04,28,11,59,15.40
2005,04,28,13,48,17.70
2005,04,28,13,49,17.60
2005,04,28,13,50,17.60
2005,04,28,13,51,17.60
2005,04,28,13,52,17.60
2005,04,28,13,53,17.60
2005,04,28,13,54,17.70
2005,04,28,13,55,17.90
2005,04,28,13,56,17.90
2005,04,28,13,57,17.90
2005,04,28,13,58,17.90
2005,04,28,13,59,17.90
2005,04,28,14,00,17.90
2005,04,28,14,01,18.10
2005,04,28,14,02,18.20
2005,04,28,14,03,18.20
2005,04,28,14,04,18.30
2005,04,28,14,05,18.30
2005,04,28,14,06,18.40
2005,04,28,14,07,18.50
2005,04,28,14,08,18.50
2005,04,28,14,09,18.50
2005,04,28,14,10,18.40
2005,04,28,14,11,18.40
2005,04,28,14,12,18.30
2005,04,28,14,13,18.20
2005,04,28,14,14,18.20
2005,04,28,14,15,18.00
2005,04,28,14,16,17.90
2005,04,28,14,17,18.10
2005,04,28,14,18,18.20
2005,04,28,14,19,18.20
2005,04,28,14,20,18.30
2005,04,28,14,21,18.30
2005,04,28,14,22,18.30
2005,04,28,14,23,18.20
2005,04,28,14,24,18.20
2005,04,28,14,25,18.10
2005,04,28,14,26,18.10
2005,04,28,14,27,18.10
2005,04,28,14,28,18.10
2005,04,28,14,29,18.10
2005,04,28,14,30,18.20
2005,04,28,14,31,18.20
2005,04,28,14,32,18.20
2005,04,28,14,33,18.20
2005,04,28,14,34,17.90
2005,04,28,14,35,17.90
2005,04,28,14,36,17.90
2005,04,28,14,37,17.90
2005,04,28,14,38,18.00
2005,04,28,14,39,18.20
2005,04,28,14,40,18.20
2005,04,28,14,41,18.20
2005,04,28,14,42,18.10
2005,04,28,14,43,17.90
2005,04,28,14,44,18.00
2005,04,28,14,45,17.90
2005,04,28,14,46,17.80
2005,04,28,14,47,17.70
2005,04,28,14,48,17.70
2005,04,28,14,49,17.80
2005,04,28,14,50,17.90
2005,04,28,14,51,17.90
2005,04,28,14,52,17.90
2005,04,28,14,53,18.00
2005,04,28,14,54,18.20
2005,04,28,14,55,18.20
2005,04,28,14,56,17.90
2005,04,28,14,57,17.80
2005,04,28,14,58,17.70
2005,04,28,14,59,17.70
2005,04,28,15,00,17.70
2005,04,28,15,01,17.70
2005,04,28,15,02,17.60
2005,04,28,15,03,17.60
2005,04,28,15,04,17.50
2005,04,28,15,05,17.40
2005,04,28,15,06,17.30
2005,04,28,15,07,17.30
2005,04,28,15,08,17.30
2005,04,28,15,09,17.30
2005,04,28,15,10,17.30
2005,04,28,15,11,17.60
2005,04,28,15,12,17.70
2005,04,28,15,13,17.70
2005,04,28,15,14,17.60
2005,04,28,15,15,17.60
2005,04,28,15,16,17.50
2005,04,28,15,17,17.50
2005,04,28,15,18,17.60
2005,04,28,15,19,17.70
2005,04,28,15,20,17.70
2005,04,28,15,21,17.80
2005,04,28,15,22,17.90
2005,04,28,15,23,17.90
2005,04,28,15,24,18.10
2005,04,28,15,25,18.10
2005,04,28,15,26,18.20
2005,04,28,15,27,18.20
2005,04,28,15,28,18.10
2005,04,28,15,29,18.10
2005,04,28,15,30,18.10
2005,04,28,15,31,17.90
2005,04,28,15,32,17.70
2005,04,28,15,33,17.60
2005,04,28,15,34,17.60
2005,04,28,15,35,17.50
2005,04,28,15,36,17.50
2005,04,28,15,37,17.50
2005,04,28,15,38,17.50
2005,04,28,15,39,17.40
2005,04,28,15,40,17.40
2005,04,28,15,41,17.40
2005,04,28,15,42,17.50
2005,04,28,15,43,17.60
2005,04,28,15,44,17.60
2005,04,28,15,45,17.70
2005,04,28,15,46,17.80
2005,04,28,15,47,17.90
2005,04,28,15,48,18.10
2005,04,28,15,49,18.20
2005,04,28,15,50,18.30
2005,04,28,15,51,18.30
2005,04,28,15,52,18.20
2005,04,28,15,53,18.20
2005,04,28,15,54,18.30
2005,04,28,15,55,18.30
2005,04,28,15,56,18.30
2005,04,28,15,57,18.30
2005,04,28,15,58,18.30
2005,04,28,15,59,18.40
2005,04,28,16,00,18.30
2005,04,28,16,01,18.30
2005,04,28,16,02,18.30
2005,04,28,16,03,18.40
2005,04,28,16,04,18.40
2005,04,28,16,05,18.50
2005,04,28,16,06,18.40
2005,04,28,16,07,18.40
2005,04,28,16,08,18.30
2005,04,28,16,09,18.30
2005,04,28,16,10,18.40
2005,04,28,16,11,18.30
2005,04,28,16,12,18.20
2005,04,28,16,13,18.20
2005,04,28,16,14,18.30
2005,04,28,16,15,18.40
2005,04,28,16,16,18.40
2005,04,28,16,17,18.50
2005,04,28,16,18,18.40
2005,04,28,16,19,18.30
2005,04,28,16,20,18.30
2005,04,28,16,21,18.30
2005,04,28,16,22,18.40
2005,04,28,16,23,18.40
2005,04,28,16,24,18.60
2005,04,28,16,25,18.60
2005,04,28,16,26,18.50
2005,04,28,16,27,18.40
2005,04,28,16,28,18.30
2005,04,28,16,29,18.30
2005,04,28,16,30,18.30
2005,04,28,16,31,18.20
2005,04,28,16,32,18.20
2005,04,28,16,33,18.10
2005,04,28,16,34,18.10
2005,04,28,16,35,18.10
2005,04,28,16,36,18.10
2005,04,28,16,37,18.20
2005,04,28,16,38,18.30
2005,04,28,16,39,18.20
2005,04,28,16,40,18.20
2005,04,28,16,41,18.20
2005,04,28,16,42,18.20
2005,04,28,16,43,18.00
2005,04,28,16,44,18.00
2005,04,28,16,45,18.10
2005,04,28,16,46,18.10
2005,04,28,16,47,18.10
2005,04,28,16,48,18.10
2005,04,28,16,49,18.20
2005,04,28,16,50,18.20
2005,04,28,16,51,18.20
2005,04,28,16,52,18.20
2005,04,28,16,53,18.20
2005,04,28,16,54,18.20
2005,04,28,16,55,18.20
2005,04,28,16,56,18.20
2005,04,28,16,57,18.20
2005,04,28,16,58,18.10
2005,04,28,16,59,17.90
2005,04,28,17,00,17.90
2005,04,28,17,01,17.80
2005,04,28,17,02,17.60
2005,04,28,17,03,17.50
2005,04,28,17,04,17.60
2005,04,28,17,05,17.60
2005,04,28,17,06,17.60
2005,04,28,17,07,17.60
2005,04,28,17,08,17.50
2005,04,28,17,09,17.50
2005,04,28,17,10,17.40
2005,04,28,17,11,17.30
2005,04,28,17,12,17.30
2005,04,28,17,13,17.20
2005,04,28,17,14,17.10
2005,04,28,17,15,17.00
2005,04,28,17,16,16.90
2005,04,28,17,17,17.00
2005,04,28,17,18,17.00
2005,04,28,17,19,17.00
2005,04,28,17,20,16.90
2005,04,28,17,21,16.90
2005,04,28,17,22,16.80
2005,04,28,17,23,16.90
2005,04,28,17,24,16.90
2005,04,28,17,25,16.80
2005,04,28,17,26,16.80
2005,04,28,17,27,16.90
2005,04,28,17,28,16.90
2005,04,28,17,29,17.00
2005,04,28,17,30,17.00
2005,04,28,17,31,17.00
2005,04,28,17,32,17.10
2005,04,28,17,33,17.20
2005,04,28,17,34,17.20
2005,04,28,17,35,17.30
2005,04,28,17,36,17.30
2005,04,28,17,37,17.30
2005,04,28,17,38,17.30
2005,04,28,17,39,17.30
2005,04,28,17,40,17.30
2005,04,28,17,41,17.30
2005,04,28,17,42,17.30
2005,04,28,17,43,17.20
2005,04,28,17,44,17.20
2005,04,28,17,45,17.20
2005,04,28,17,46,17.20
2005,04,28,17,47,17.20
2005,04,28,17,48,17.30
2005,04,28,17,49,17.30
2005,04,28,17,50,17.30
2005,04,28,17,51,17.30
2005,04,28,17,52,17.30
2005,04,28,17,53,17.30
2005,04,28,17,54,17.30
2005,04,28,17,55,17.40
2005,04,28,17,56,17.40
2005,04,28,17,57,17.40
2005,04,28,17,58,17.40
2005,04,28,17,59,17.40
2005,04,28,18,00,17.40
2005,04,28,18,01,17.40
2005,04,28,18,02,17.40
2005,04,28,18,03,17.40
2005,04,28,18,04,17.40
2005,04,28,18,05,17.40
2005,04,28,18,06,17.30
2005,04,28,18,07,17.30
2005,04,28,18,08,17.30
2005,04,28,18,09,17.30
2005,04,28,18,10,17.30
2005,04,28,18,11,17.30
2005,04,28,18,12,17.30
2005,04,28,18,13,17.30
2005,04,28,18,14,17.30
2005,04,28,18,15,17.30
2005,04,28,18,16,17.30
2005,04,28,18,17,17.30
2005,04,28,18,18,17.30
2005,04,28,18,19,17.30
2005,04,28,18,20,17.30
2005,04,28,18,21,17.30
2005,04,28,18,22,17.30
2005,04,28,18,23,17.30
2005,04,28,18,24,17.30
2005,04,28,18,25,17.40
2005,04,28,18,26,17.40
2005,04,28,18,27,17.40
2005,04,28,18,28,17.40
2005,04,28,18,29,17.40
2005,04,28,18,30,17.40
2005,04,28,18,31,17.40
2005,04,28,18,32,17.40
2005,04,28,18,33,17.40
2005,04,28,18,34,17.40
2005,04,28,18,35,17.50
2005,04,28,18,36,17.50
2005,04,28,18,37,17.60
2005,04,28,18,38,17.60
2005,04,28,18,39,17.60
2005,04,28,18,40,17.60
2005,04,28,18,41,17.60
2005,04,28,18,42,17.50
2005,04,28,18,43,17.50
2005,04,28,18,44,17.50
2005,04,28,18,45,17.50
2005,04,28,18,46,17.50
2005,04,28,18,47,17.50
2005,04,28,18,48,17.50
2005,04,28,18,49,17.50
2005,04,28,18,50,17.50
2005,04,28,18,51,17.50
2005,04,28,18,52,17.50
2005,04,28,18,53,17.60
2005,04,28,18,54,17.60
2005,04,28,18,55,17.60
2005,04,28,18,56,17.60
2005,04,28,18,57,17.70
2005,04,28,18,58,17.70
2005,04,28,18,59,17.70
2005,04,28,19,00,17.70
2005,04,28,19,01,17.80
2005,04,28,19,02,17.90
2005,04,28,19,03,17.90
2005,04,28,19,04,17.90
2005,04,28,19,05,17.90
2005,04,28,19,06,17.90
2005,04,28,19,07,17.90
2005,04,28,19,08,18.00
2005,04,28,19,09,18.10
2005,04,28,19,10,18.10
2005,04,28,19,11,18.10
2005,04,28,19,12,18.10
2005,04,28,19,13,18.10
2005,04,28,19,14,18.10
2005,04,28,19,15,18.20
2005,04,28,19,16,18.10
2005,04,28,19,17,18.10
2005,04,28,19,18,18.10
2005,04,28,19,19,18.10
2005,04,28,19,20,18.10
2005,04,28,19,21,18.10
2005,04,28,19,22,17.90
2005,04,28,19,23,17.90
2005,04,28,19,24,17.90
2005,04,28,19,25,17.90
2005,04,28,19,26,17.90
2005,04,28,19,27,18.00
2005,04,28,19,28,18.10
2005,04,28,19,29,18.10
2005,04,28,19,30,17.90
2005,04,28,19,31,17.90
2005,04,28,19,32,17.90
2005,04,28,19,33,17.90
2005,04,28,19,34,17.90
2005,04,28,19,35,17.80
2005,04,28,19,36,17.80
2005,04,28,19,37,17.80
2005,04,28,19,38,17.80
2005,04,28,19,39,17.70
2005,04,28,19,40,17.70
2005,04,28,19,41,17.70
2005,04,28,19,42,17.70
2005,04,28,19,43,17.70
2005,04,28,19,44,17.70
2005,04,28,19,45,17.60
2005,04,28,19,46,17.60
2005,04,28,19,47,17.60
2005,04,28,19,48,17.50
2005,04,28,19,49,17.50
2005,04,28,19,50,17.50
2005,04,28,19,51,17.40
2005,04,28,19,52,17.40
2005,04,28,19,53,17.30
2005,04,28,19,54,17.30
2005,04,28,19,55,17.30
2005,04,28,19,56,17.30
2005,04,28,19,57,17.30
2005,04,28,19,58,17.30
2005,04,28,19,59,17.30
2005,04,28,20,00,17.30
2005,04,28,20,01,17.30
2005,04,28,20,02,17.20
2005,04,28,20,03,17.20
2005,04,28,20,04,17.20
2005,04,28,20,05,17.10
2005,04,28,20,06,17.10
2005,04,28,20,07,17.10
2005,04,28,20,08,17.00
2005,04,28,20,09,17.00
2005,04,28,20,10,16.90
2005,04,28,20,11,16.90
2005,04,28,20,12,16.80
2005,04,28,20,13,16.70
2005,04,28,20,14,16.70
2005,04,28,20,15,16.70
2005,04,28,20,16,16.70
2005,04,28,20,17,16.60
2005,04,28,20,18,16.50
2005,04,28,20,19,16.40
2005,04,28,20,20,16.40
2005,04,28,20,21,16.30
2005,04,28,20,22,16.20
2005,04,28,20,23,16.10
2005,04,28,20,24,16.00
2005,04,28,20,25,15.80
2005,04,28,20,26,15.80
2005,04,28,20,27,15.70
2005,04,28,20,28,15.70
2005,04,28,20,29,15.60
2005,04,28,20,30,15.50
2005,04,28,20,31,15.50
2005,04,28,20,32,15.50
2005,04,28,20,33,15.50
2005,04,28,20,34,15.50
2005,04,28,20,35,15.50
2005,04,28,20,36,15.50
2005,04,28,20,37,15.50
2005,04,28,20,38,15.50
2005,04,28,20,39,15.40
2005,04,28,20,40,15.40
2005,04,28,20,41,15.30
2005,04,28,20,42,15.30
2005,04,28,20,43,15.30
2005,04,28,20,44,15.30
2005,04,28,20,45,15.30
2005,04,28,20,46,15.20
2005,04,28,20,47,15.20
2005,04,28,20,48,15.20
2005,04,28,20,49,15.20
2005,04,28,20,50,15.10
2005,04,28,20,51,15.10
2005,04,28,20,52,15.10
2005,04,28,20,53,15.10
2005,04,28,20,54,15.00
2005,04,28,20,55,15.00
2005,04,28,20,56,15.00
2005,04,28,20,57,15.00
2005,04,28,20,58,14.90
2005,04,28,20,59,14.90
2005,04,28,21,00,14.90
2005,04,28,21,01,14.90
2005,04,28,21,02,14.90
2005,04,28,21,03,14.90
2005,04,28,21,04,14.90
2005,04,28,21,05,14.80
2005,04,28,21,06,14.80
2005,04,28,21,07,14.80
2005,04,28,21,08,14.80
2005,04,28,21,09,14.80
2005,04,28,21,10,14.80
2005,04,28,21,11,14.80
2005,04,28,21,12,14.70
2005,04,28,21,13,14.70
2005,04,28,21,14,14.60
2005,04,28,21,15,14.60
2005,04,28,21,16,14.60
2005,04,28,21,17,14.60
2005,04,28,21,18,14.60
2005,04,28,21,19,14.50
2005,04,28,21,20,14.50
2005,04,28,21,21,14.50
2005,04,28,21,22,14.40
2005,04,28,21,23,14.40
2005,04,28,21,24,14.40
2005,04,28,21,25,14.40
2005,04,28,21,26,14.40
2005,04,28,21,27,14.40
2005,04,28,21,28,14.30
2005,04,28,21,29,14.30
2005,04,28,21,30,14.20
2005,04,28,21,31,14.20
2005,04,28,21,32,14.20
2005,04,28,21,33,14.20
2005,04,28,21,34,14.20
2005,04,28,21,35,14.10
2005,04,28,21,36,14.10
2005,04,28,21,37,14.10
2005,04,28,21,38,14.10
2005,04,28,21,39,14.10
2005,04,28,21,40,14.10
2005,04,28,21,41,14.10
2005,04,28,21,42,14.10
2005,04,28,21,43,14.10
2005,04,28,21,44,14.00
2005,04,28,21,45,14.00
2005,04,28,21,46,14.00
2005,04,28,21,47,14.00
2005,04,28,21,48,13.90
2005,04,28,21,49,13.90
2005,04,28,21,50,13.90
2005,04,28,21,51,13.90
2005,04,28,21,52,13.80
2005,04,28,21,53,13.80
2005,04,28,21,54,13.80
2005,04,28,21,55,13.80
2005,04,28,21,56,13.80
2005,04,28,21,57,13.80
2005,04,28,21,58,13.80
2005,04,28,21,59,13.70
2005,04,28,22,00,13.70
2005,04,28,22,01,13.70
2005,04,28,22,02,13.70
2005,04,28,22,03,13.70
2005,04,28,22,04,13.70
2005,04,28,22,05,13.70
2005,04,28,22,06,13.70
2005,04,28,22,07,13.70
2005,04,28,22,08,13.70
2005,04,28,22,09,13.70
2005,04,28,22,10,13.70
2005,04,28,22,11,13.70
2005,04,28,22,12,13.60
2005,04,28,22,13,13.60
2005,04,28,22,14,13.60
2005,04,28,22,15,13.60
2005,04,28,22,16,13.60
2005,04,28,22,17,13.50
2005,04,28,22,18,13.50
2005,04,28,22,19,13.50
2005,04,28,22,20,13.50
2005,04,28,22,21,13.50
2005,04,28,22,22,13.50
2005,04,28,22,23,13.50
2005,04,28,22,24,13.50
2005,04,28,22,25,13.50
2005,04,28,22,26,13.50
2005,04,28,22,27,13.50
2005,04,28,22,28,13.40
2005,04,28,22,29,13.40
2005,04,28,22,30,13.40
2005,04,28,22,31,13.40
2005,04,28,22,32,13.40
2005,04,28,22,33,13.40
2005,04,28,22,34,13.30
2005,04,28,22,35,13.30
2005,04,28,22,36,13.30
2005,04,28,22,37,13.30
2005,04,28,22,38,13.30
2005,04,28,22,39,13.30
2005,04,28,22,40,13.30
2005,04,28,22,41,13.30
2005,04,28,22,42,13.30
2005,04,28,22,43,13.20
2005,04,28,22,44,13.20
2005,04,28,22,45,13.20
2005,04,28,22,46,13.20
2005,04,28,22,47,13.10
2005,04,28,22,48,13.10
2005,04,28,22,49,13.10
2005,04,28,22,50,13.10
2005,04,28,22,51,13.10
2005,04,28,22,52,13.00
2005,04,28,22,53,13.00
2005,04,28,22,54,13.00
2005,04,28,22,55,13.00
2005,04,28,22,56,13.00
2005,04,28,22,57,13.00
2005,04,28,22,58,13.00
2005,04,28,22,59,13.00
2005,04,28,23,00,13.00
2005,04,28,23,03,12.90
2005,04,28,23,04,12.90
2005,04,28,23,05,12.90
2005,04,28,23,06,12.90
2005,04,28,23,07,12.90
2005,04,28,23,08,12.90
2005,04,28,23,09,12.90
2005,04,28,23,10,12.90
2005,04,28,23,11,12.80
2005,04,28,23,12,12.80
2005,04,28,23,13,12.80
2005,04,28,23,14,12.80
2005,04,28,23,15,12.80
2005,04,28,23,16,12.80
2005,04,28,23,17,12.80
2005,04,28,23,18,12.80
2005,04,28,23,19,12.80
2005,04,28,23,20,12.80
2005,04,28,23,21,12.80
2005,04,28,23,22,12.80
2005,04,28,23,23,12.80
2005,04,28,23,24,12.80
2005,04,28,23,25,12.80
2005,04,28,23,26,12.70
2005,04,28,23,27,12.70
2005,04,28,23,28,12.70
2005,04,28,23,29,12.70
2005,04,28,23,30,12.70
2005,04,28,23,31,12.70
2005,04,28,23,32,12.70
2005,04,28,23,33,12.70
2005,04,28,23,34,12.60
2005,04,28,23,35,12.60
2005,04,28,23,36,12.60
2005,04,28,23,37,12.60
2005,04,28,23,38,12.70
2005,04,28,23,39,12.70
2005,04,28,23,40,12.70
2005,04,28,23,41,12.70
2005,04,28,23,42,12.60
2005,04,28,23,43,12.60
2005,04,28,23,44,12.60
2005,04,28,23,45,12.60
2005,04,28,23,46,12.50
2005,04,28,23,47,12.40
2005,04,28,23,48,12.40
2005,04,28,23,49,12.30
2005,04,28,23,50,12.30
2005,04,28,23,51,12.20
2005,04,28,23,52,12.20
2005,04,28,23,53,12.20
2005,04,28,23,54,12.10
2005,04,28,23,55,12.10
2005,04,28,23,56,12.10
2005,04,28,23,57,12.00
2005,04,28,23,58,11.90
2005,04,28,23,59,11.90
